Regional Weather Roundup
Issued by NWS

Home | Current Version | Previous Version | Graphics & Text | Print | Product List | Glossary On
Versions: 1 2 3 4 5 6 7 8 9 10 11 12 13 14 15 16 17 18 19 20 21 22 23 24 25 26 27 28 29 30 31 32 33 34 35 36 37 38 39 40 41 42 43 44 45 46 47 48 49 50
000
ASUS43 KDTX 252110
RWRMI
MICHIGAN HOURLY REGIONAL WEATHER ROUNDUP
NATIONAL WEATHER SERVICE DETROIT/PONTIAC MI
500 PM EDT MON JUL 25 2016

NOTE: "FAIR" INDICATES FEW OR NO CLOUDS BELOW 12,000 FEET WITH NO
SIGNIFICANT WEATHER AND/OR OBSTRUCTION TO VISIBILITY.

MIZ047>049-052>055-059>063-066>070-074>076-081>083-252200-
SOUTHEAST LOWER MICHIGAN

CITY           SKY/WX    TMP DP  RH WIND       PRES   REMARKS
ADRIAN         MOSUNNY   88  66  48 NW9       29.94F HX  90
ALMA           SUNNY     87  59  39 MISG      29.94R
ANN ARBOR      HAZE      88  63  43 NW9       29.92F VSB 1/4
BAD AXE        MOSUNNY   86  57  36 W17G24    29.90S
CARO           SUNNY     88  62  42 W9        29.90F
DETROIT CITY   MOSUNNY   89  61  38 VRB7      29.89F
DETROIT        MOSUNNY   92  61  35 W13       29.91F HX  92
FLINT          MOSUNNY   90  61  37 NW12      29.92F HX  90
GROSSE ILE     CLOUDY    90  64  41 NW10      29.89F HX  91
HILLSDALE      PTSUNNY   82  65  55 W8        29.96
HOWELL         MOSUNNY   86  61  43 NW10      29.94F

CITY           SKY/WX    TMP DP  RH WIND       PRES   REMARKS
JACKSON        MOSUNNY   84  63  49 NW10      29.95F
LAMBERTVILLE   MOSUNNY   89  69  51 W7        29.93F HX  92
LANSING        MOSUNNY   84  63  49 W8        29.95S
LAPEER         FAIR      88  59  37 W13G18    29.91F
MASON          PTSUNNY   87  63  44 W13       29.95S
MONROE         MOSUNNY   88  70  55 W13G21    29.90F HX  93
MT. CLEMENS    MOSUNNY   88  64  44 W13       29.88F HX  90
PONTIAC        MOSUNNY   85  62  46 NW13      29.92F
PORT HURON     PTSUNNY   86  64  48 W7        29.90S
TRI CITIES     SUNNY     86  62  44 W15       29.91F
MIDLAND        FAIR      86  57  37 W15G21    29.90S
TROY           SUNNY     90  58  34 NW9G16    29.93S
SAGINAW HB     SUNNY     88  59  37 W13G20    29.90F
$$
MIZ043>046-050>051-056>058-064>065-071>073-077>080-252200-
SOUTHWEST LOWER MICHIGAN

CITY           SKY/WX    TMP DP  RH WIND       PRES   REMARKS
BATTLE CREEK   MOSUNNY   83  63  50 NW14      29.98S
BENTON HARBOR  MOSUNNY   79  64  60 W7        30.00F
BIG RAPIDS     SUNNY     82  57  41 NW10G16   29.95S
COLDWATER      MOSUNNY   85  65  50 W5        29.97S
FREMONT        FAIR      83  57  40 NW13G20   29.96F
HOLLAND        SUNNY     80  67  64 W10       30.00S
GRAND RAPIDS   MOSUNNY   85  61  44 W13       29.96S
IONIA          FAIR      86  57  37 NW12      29.94S
KALAMAZOO      MOSUNNY   84  64  50 W10       29.97S
LUDINGTON      SUNNY     79  65  61 NW8       29.97S
MARSHALL       MOSUNNY   86  65  50 W7        29.96S
MOUNT PLEASANT SUNNY     86  59  39 NW8G16    29.93S
MUSKEGON       MOSUNNY   84  60  44 NW14G21   29.97S
SOUTH HAVEN    SUNNY     79  66  65 NW8       30.00S
$$
MIZ016>042-252200-
NORTHERN LOWER MICHIGAN

CITY           SKY/WX    TMP DP  RH WIND       PRES   REMARKS
ALPENA         MOSUNNY   83  58  42 NW13G23   29.89R
BEAVER ISLAND  SUNNY     78  61  55 NW9       29.95S
BELLAIRE       SUNNY     79  59  49 NW12      29.94F
CADILLAC       SUNNY     81  60  48 NW15      29.97R
CHARLEVOIX     PTSUNNY   78  61  55 W13       29.97S
FRANKFORT      SUNNY     78  65  63 SW6       29.96S
GAYLORD        MOSUNNY   76  59  55 NW9       29.95F
GRAYLING       MOSUNNY   82  60  46 W12G22    29.96S
HARBOR SPRINGS PTSUNNY   75  65  70 W9        29.93F
HOUGHTON LAKE  SUNNY     83  57  41 NW17G24   29.95R
MANISTEE       SUNNY     81  64  56 W10       29.96S
OSCODA         SUNNY     89  55  31 W15G23    29.86S
PELLSTON       SUNNY     78  58  49 W16G26    29.93S
ROGERS CITY    CLOUDY    75  61  60 NW9       29.90S
TRAVERSE CITY  MOSUNNY   83  58  42 NW12      29.93S
$$
MIZ007>008-015-252200-
EASTERN UPPER MICHIGAN

CITY           SKY/WX    TMP DP  RH WIND       PRES   REMARKS
KINROSS        PTSUNNY   71  60  68 NW17      29.92R
MACKINAC ISLAN CLOUDY    72  59  63 NW12      29.91S
NEWBERRY       CLOUDY    73  59  60 NW8       29.95R
S. S. MARIE    CLOUDY    70  60  70 W16G28    29.91S
$$
MIZ004>006-011>014-085-252200-
CENTRAL UPPER MICHIGAN

CITY           SKY/WX    TMP DP  RH WIND       PRES   REMARKS
MANISTIQUE     SUNNY     78  58  50 N15G24    29.93F
ESCANABA       PTSUNNY   82  55  39 W15       29.91F
MENOMINEE      PTSUNNY  N/A N/A N/A NW7       29.95R
SAWYER-GWINN   MOSUNNY   79  54  41 N12G23    29.96F
$$
MIZ001>003-009>011-084-252200-
WESTERN UPPER MICHIGAN

CITY           SKY/WX    TMP DP  RH WIND       PRES   REMARKS
IRON MOUNTAIN  SUNNY     83  55  38 NW14      29.96S
HOUGHTON       SUNNY     77  57  50 W23       29.96F
COPPER HARBOR    N/A     78  59  51 N10G24    29.92S
IRONWOOD       SUNNY     79  61  53 W10G17    29.98F
$$

ABBREVIATIONS USED IN REMARKS
   TC - TEMPERATURE IN CELSIUS
  WCI - WIND CHILL INDEX
   HX - HEAT INDEX
  VSB - VISIBILITY





USA.gov is the U.S. government's official web portal to all federal, state and local government web resources and services.